www.pogodaiklimat.ru

Погода и климат >> Архив погоды >> Египет >> Хургада


АРХИВ ПОГОДЫ в Хургаде

Время (UTC), дата Ветер
(напр.,м/с)
 
Видим.   Явления Облачность Т
(С)
Тd
(С)
f
(%)
Тe
(С)
Тes
(С)
Комфортность P
(гПа)
Po
(гПа)
Тmin
(С)
Tmax
(С)
R
(мм)
R24
(мм)
S
(см)
03 13.09 СЗ 4 10 км ясно +25.3 +16.4 58 +29 +29 душно 1008.5 1006.9
06 13.09 СЗ 5 10 км ясно +28.6 +12.1 36 +30 +33 жарко 1009.0 1007.4 +24.6
09 13.09 СЗ 9 10 км ясно +32.5 +15.9 37 +35 +37 душно 1008.2 1006.6
12 13.09 СЗ 11 10 км ясно +34.4 +13.2 28 +35 +35 очень
жарко
1005.9 1004.3
18 13.09 СЗ 8 10 км ясно +30.7 +13.9 36 +32 +32 жарко 1006.6 1005.0 +35.2
21 13.09 З 5 10 км ясно +29.2 +12.2 35 +30 +30 жарко 1007.3 1005.7
00 14.09 З 5 10 км ясно +27.4 +17.8 56 +32 +32 очень
душно
1006.8 1005.2
03 14.09 З 4 10 км ясно +25.9 +18.3 63 +31 +31 очень
душно
1007.3 1005.7
06 14.09 СЗ 7 10 км ясно +28.2 +18.9 57 +33 +35 очень
душно
1008.4 1006.8 +25.5
09 14.09 С 10 10 км ясно +32.0 +17.1 41 +36 +37 очень
душно
1008.0 1006.4
12 15.09 С 7 10 км ясно +35.1 +10.9 23 +34 +38 очень
жарко
1007.8 1006.2
15 15.09 С 4 10 км ясно +34.1 +11.9 26 +34 +35 очень
жарко
1008.2 1006.6
18 15.09 З 3 10 км ясно +31.0 +11.4 30 +31 +31 жарко 1009.6 1008.0 +35.8
21 15.09 З 4 10 км ясно +29.6 +12.5 35 +31 +31 жарко 1009.7 1008.1
00 16.09 З 4 10 км ясно +28.2 +12.5 38 +30 +30 жарко 1009.4 1007.8
03 16.09 З 5 10 км ясно +26.7 +15.1 49 +29 +29 жарко 1010.2 1008.6
06 16.09 З 6 10 км ясно +30.0 +14.5 39 +32 +34 жарко 1011.2 1009.6 +26.3
09 16.09 С 8 10 км ясно +33.3 +14.4 32 +35 +38 душно 1010.8 1009.2
12 16.09 С 9 10 км ясно +35.6 +13.2 26 +36 +37 очень
жарко
1009.0 1007.4
15 16.09 С 3 10 км ясно +33.1 +15.1 34 +35 +36 душно 1008.7 1007.1
18 16.09 З 4 10 км ясно +30.3 +16.3 43 +34 +34 очень
душно
1009.9 1008.3 +35.8
21 16.09 З 7 10 км ясно +29.1 +9.9 30 +29 +29 жарко 1010.2 1008.6
00 17.09 З 8 10 км ясно +28.3 +11.9 36 +29 +29 жарко 1008.9 1007.3
06 17.09 СЗ 11 10 км ясно +30.6 +12.5 33 +31 +32 жарко 1010.6 1009.0 +26.6
09 17.09 С 10 10 км ясно +36.6 +17.0 31 +39 +40 очень
душно
1010.2 1008.6
12 17.09 С 7 10 км ясно +35.0 +14.8 30 +36 +40 очень
жарко
1008.2 1006.6
15 17.09 СЗ 6 10 км ясно +34.0 +14.5 31 +35 +36 очень
жарко
1007.3 1005.7
18 17.09 СЗ 4 10 км ясно +30.1 +18.8 51 +35 +35 очень
душно
1008.9 1007.3 +35.0
21 17.09 З 5 10 км ясно +30.5 +11.9 32 +31 +31 жарко 1008.7 1007.1
00 18.09 З 6 10 км ясно +28.3 +12.6 38 +30 +30 жарко 1008.2 1006.6
03 18.09 СЗ 4 10 км ясно +26.1 +13.2 45 +28 +28 жарко 1009.0 1007.4
06 18.09 СЗ 4 10 км ясно +29.1 +12.9 37 +30 +34 жарко 1010.7 1009.1 +25.7
09 18.09 СЗ 8 10 км ясно +33.8 +16.8 36 +37 +40 очень
душно
1009.7 1008.1
12 18.09 С 9 10 км ясно +34.9 +19.2 40 +40 +42 очень
душно
1008.1 1006.5
15 18.09 СЗ 8 10 км ясно +34.1 +16.4 35 +37 +37 очень
душно
1007.7 1006.1
18 18.09 СЗ 7 10 км ясно +32.4 +12.6 30 +33 +33 жарко 1009.3 1007.7 +35.4
21 18.09 З 5 10 км ясно +29.9 +11.9 33 +31 +31 жарко 1009.9 1008.3
00 19.09 З 5 10 км ясно +28.4 +12.3 37 +30 +30 жарко 1008.6 1007.0
03 19.09 СЗ 4 10 км ясно +26.3 +14.1 47 +29 +29 жарко 1009.2 1007.6
06 19.09 СЗ 5 10 км ясно +29.9 +14.0 38 +32 +34 жарко 1010.0 1008.4 +26.2
09 19.09 С 9 10 км ясно +33.5 +18.8 42 +38 +40 очень
душно
1009.3 1007.7
12 19.09 С 9 10 км ясно +34.9 +19.7 41 +41 +42 опасность
перегрева
1007.5 1005.9
15 19.09 СЗ 8 10 км ясно +34.5 +17.3 36 +38 +38 очень
душно
1006.9 1005.3
18 19.09 СЗ 5 10 км ясно +32.2 +16.1 38 +35 +35 очень
душно
1008.2 1006.6 +35.5
21 19.09 СЗ 4 10 км ясно +31.2 +16.0 40 +34 +34 душно 1008.7 1007.1
00 20.09 СЗ 7 10 км ясно +28.9 +20.1 59 +35 +35 очень
душно
1008.3 1006.7

 

Местоположение метеостанции Хургада (Египет): широта 27.15 долгота 33.72 высота над уровнем моря 14 м.

В архиве по умолчанию представлена погода в Хургаде за последнюю неделю. Архивные данные за месяц целиком и за предыдущие месяцы, начиная с января 2011 года, Вы можете получить, выбрав интересующий диапазон дат из раскрывающегося списка и нажав кнопку "Ввод!".


*Определитесь, кто Вы:
робот инопланетянин человек

Внимание! Время в таблицах - всемирное. Для получения местного времени необходимо прибавить поправку, которая равна 2 ч.

Смотрите также архив погоды в соседних городах и на ближайших метеорологических станциях:

Погода в Эль-Торе (Египет) (121 км)
Погода в Эль-Кусейре (Египет) (121 км)
Погода в Университете South Of Valley (Египет) (143 км)
Погода в Луксоре (Египет) (193 км)
Погода в Абу Редис (Египет) (202 км)
Погода в Асьюте (Египет) (268 км)
Погода в Рас-Седре (Египет) (287 км)
Погода в Эйлате (Израиль) (293 км)
Погода в Эль-Ваджхе (Саудовская Аравия) (294 км)
Погода в Акаба (Иордания) (295 км)

Пояснения к столбцам:

Ветер - указаны скорость ветра в м/с - средняя за 10 мин, порывы в срок и между сроками (в фигурных скобках) и направление, откуда дует ветер: С - северный, СВ - северо-восточный, В - восточный, ЮВ - юго-восточный, Ю - южный, ЮЗ - юго-западный, З - западный, СЗ - северо-западный.
Видимость - горизонтальная дальность видимости в метрах или километрах. При видимости от 1 до 10 км при отсутствии осадков обычно наблюдается дымка, при ухудшении видимости до 1 км и менее - туман. В сухую погоду видимость может ухудшаться дымом, пылью или мглою.
Явления - указаны атмосферные явления, наблюдавшиеся в срок или в последний час перед сроком; фигурными скобками обозначены явления, наблюдавшиеся между сроками (за 1-3 часа до срока); квадратными скобками обозначены град или гололедные отложения с указанием их диаметра в мм.
Облачность - указаны через наклонную черту общая и нижняя облачность в баллах и высота нижней границы облаков в метрах; квадратными скобками обозначены формы облаков: Ci - перистые, Cs - перисто-слоистые, Cc - перисто-кучевые, Ac - высококучевые, As - высокослоистые, Sc - слоисто-кучевые, Ns - слоисто-дождевые, Cu - кучевые, Cb - кучево-дождевые. Подробнее классификацию облаков см. в Атласе облаков (PDF).
T - Температура воздуха - температура, измеренная на высоте 2 м над землей.
Td - Температура точки росы - температура, при понижении до которой содержащийся в воздухе водяной пар достигнет насыщения.
f - Относительная влажность воздуха - влажноcть воздуха, измеренная на высоте 2 м над землей.
Te - Эффективная температура - температура, которую ощущает одетый по сезону человек в тени. Характеристика душности погоды. При расчете учитывается влияние влажности воздуха и скорости ветра на теплоощущения человека.
Tes - Эффективная температура на солнце - температура, которую ощущает человек, с поправкой на солнечный нагрев. Характеристика знойности погоды. Зависит от высоты солнца над горизонтом, облачности и скорости ветра. Ночью, в пасмурную погоду, а также при ветре 12 м/с и более поправка равна нулю.
P - Атмосферное давление - приведенное к уровню моря атмосферное давление.
Po - Атмосферное давление - измеренное на уровне метеостанции атмосферное давление.
Tmin - Минимальная температура - минимум температуры воздуха на высоте 2 м над землей.
Tmax - Максимальная температура - максимум температуры воздуха на высоте 2 м над землей.
R - Количество осадков - Количество выпавших осадков за период времени, мм. При наведении курсора мыши на число - период времени, за который выпало указанное количество осадков.
R24 - Количество осадков - Количество выпавших осадков за 24 часа, мм.
S - Снежный покров - Высота снежного покрова, см. При наведении курсора мыши на число - состояние снежного покрова и степень покрытия местности в баллах.